AFR663 LROP-LFPG

Flight info

Callsign AFR663
Flight time 2h 46m
Altitude 36000
Route SOKRU1K SOKRU DCT OXDOC DCT ENIMA DCT ERUKO DCT GESBA DCT MOPUG DCT DIMLO DCT DETSA/N0450F370 DCT SAFFA/N0444F360 DCT ELMUR DCT RIPUS L613 HOC/N0450F370 DCT MOROK/N0441F350 DCT PENDU DCT JAVVU DCT GIVRI/N0452F380 DCT TINIL TINIL9E
Aircraft A321/M-SDE3FGHIRWY/LB1

Departure

Time 2026-05-08 11:13
Airport Bucharest Henri Coandă International Airport (LROP)

Arrival

Time 2026-05-08 13:59
Airport Charles de Gaulle International Airport (LFPG)
Time Latitude Longitude Altitude Speed Heading
2026-05-08 10:38 44.57018 26.08079 315 ft 0 kts 354°
2026-05-08 11:06 44.57008 26.08080 315 ft 3 kts 354°
2026-05-08 11:07 44.56988 26.08083 312 ft 3 kts 354°
2026-05-08 11:07 44.56968 26.08086 314 ft 2 kts 354°
2026-05-08 11:07 44.56952 26.08089 314 ft 3 kts 338°
2026-05-08 11:07 44.56938 26.08102 312 ft 3 kts 290°
2026-05-08 11:08 44.56936 26.08128 311 ft 2 kts 266°
2026-05-08 11:08 44.56936 26.08140 312 ft 1 kts 265°
2026-05-08 11:08 44.56936 26.08142 312 ft 1 kts 265°
2026-05-08 11:10 44.56936 26.08136 311 ft 4 kts 265°
2026-05-08 11:10 44.56931 26.08045 314 ft 14 kts 262°
2026-05-08 11:10 44.56873 26.07963 313 ft 13 kts 182°
2026-05-08 11:10 44.56794 26.07986 312 ft 11 kts 196°
2026-05-08 11:11 44.56736 26.07902 312 ft 17 kts 251°
2026-05-08 11:11 44.56687 26.07689 311 ft 22 kts 233°
2026-05-08 11:11 44.56577 26.07680 311 ft 15 kts 173°
2026-05-08 11:11 44.56483 26.07718 310 ft 12 kts 114°
2026-05-08 11:12 44.56476 26.07812 311 ft 0 kts 85°
2026-05-08 11:12 44.56477 26.07839 311 ft 20 kts 85°
2026-05-08 11:12 44.56531 26.08512 315 ft 115 kts 83°
2026-05-08 11:12 44.56600 26.09434 322 ft 164 kts 83°
2026-05-08 11:13 44.56773 26.11687 1255 ft 183 kts 84°
2026-05-08 11:13 44.56914 26.13498 2041 ft 189 kts 85°
2026-05-08 11:13 44.57047 26.15334 2613 ft 189 kts 87°
2026-05-08 11:13 44.57123 26.16579 3011 ft 190 kts 87°
2026-05-08 11:14 44.57242 26.18438 3554 ft 192 kts 85°
2026-05-08 11:14 44.57420 26.20309 4063 ft 196 kts 74°
2026-05-08 11:14 44.58151 26.21921 4535 ft 201 kts 39°
2026-05-08 11:14 44.59458 26.22609 4912 ft 207 kts
2026-05-08 11:15 44.60862 26.22120 5076 ft 222 kts 327°
2026-05-08 11:15 44.62020 26.20602 5233 ft 237 kts 311°
2026-05-08 11:15 44.63339 26.19033 5337 ft 264 kts 332°
2026-05-08 11:15 44.65155 26.18350 5863 ft 277 kts 353°
2026-05-08 11:16 44.67087 26.18071 6594 ft 281 kts 353°
2026-05-08 11:16 44.69040 26.17790 7312 ft 284 kts 353°
2026-05-08 11:16 44.71016 26.17504 8038 ft 287 kts 352°
2026-05-08 11:16 44.73018 26.17213 8805 ft 290 kts 352°
2026-05-08 11:17 44.74992 26.16629 9515 ft 291 kts 337°
2026-05-08 11:17 44.76769 26.15278 10188 ft 291 kts 320°
2026-05-08 11:17 44.78232 26.13262 10540 ft 304 kts 304°
2026-05-08 11:17 44.79403 26.10674 10668 ft 324 kts 299°
2026-05-08 11:18 44.80598 26.07911 11053 ft 334 kts 300°
2026-05-08 11:18 44.81821 26.05103 11636 ft 338 kts 300°
2026-05-08 11:18 44.83060 26.02278 12283 ft 340 kts 300°
2026-05-08 11:18 44.84309 25.99437 12937 ft 343 kts 300°
2026-05-08 11:19 44.85570 25.96571 13593 ft 345 kts 300°
2026-05-08 11:19 44.86664 25.93555 14144 ft 347 kts 290°
2026-05-08 11:19 44.87392 25.90299 14667 ft 350 kts 285°
2026-05-08 11:19 44.88081 25.86991 15215 ft 353 kts 285°
2026-05-08 11:20 44.88779 25.83654 15755 ft 356 kts 285°
2026-05-08 11:20 44.89481 25.80293 16284 ft 359 kts 285°
2026-05-08 11:20 44.90192 25.76899 16786 ft 363 kts 285°
2026-05-08 11:20 44.90910 25.73478 17309 ft 365 kts 285°
2026-05-08 11:21 44.91636 25.70027 17790 ft 369 kts 285°
2026-05-08 11:21 44.92365 25.66542 18290 ft 372 kts 285°
2026-05-08 11:21 44.93096 25.63029 18741 ft 374 kts 285°
2026-05-08 11:21 44.93831 25.59497 19186 ft 376 kts 285°
2026-05-08 11:22 44.94571 25.55945 19619 ft 378 kts 285°
2026-05-08 11:22 44.95312 25.52372 20051 ft 380 kts 285°
2026-05-08 11:22 44.96051 25.48785 20461 ft 381 kts 285°
2026-05-08 11:22 44.96791 25.45176 20866 ft 383 kts 285°
2026-05-08 11:23 44.97533 25.41552 21271 ft 385 kts 285°
2026-05-08 11:23 44.98268 25.37963 21660 ft 387 kts 285°
2026-05-08 11:23 44.99018 25.34310 22050 ft 388 kts 285°
2026-05-08 11:23 44.99772 25.30643 22430 ft 390 kts 285°
2026-05-08 11:24 45.00528 25.26954 22822 ft 391 kts 285°
2026-05-08 11:24 45.01284 25.23256 23217 ft 393 kts 285°
2026-05-08 11:24 45.02042 25.19534 23610 ft 395 kts 285°
2026-05-08 11:24 45.02800 25.15799 23940 ft 396 kts 284°
2026-05-08 11:25 45.03560 25.12046 24276 ft 398 kts 284°
2026-05-08 11:25 45.04322 25.08281 24604 ft 399 kts 284°
2026-05-08 11:25 45.05087 25.04504 24932 ft 401 kts 284°
2026-05-08 11:25 45.05853 25.00709 25260 ft 402 kts 284°
2026-05-08 11:26 45.06617 24.96897 25587 ft 404 kts 284°
2026-05-08 11:26 45.07381 24.93065 25912 ft 405 kts 284°
2026-05-08 11:26 45.08219 24.89248 26233 ft 408 kts 289°
2026-05-08 11:26 45.09279 24.85509 26546 ft 410 kts 290°
2026-05-08 11:27 45.10347 24.81756 26838 ft 412 kts 289°
2026-05-08 11:27 45.11417 24.77982 27142 ft 414 kts 289°
2026-05-08 11:27 45.12484 24.74192 27440 ft 415 kts 289°
2026-05-08 11:27 45.13555 24.70383 27749 ft 417 kts 289°
2026-05-08 11:28 45.14629 24.66558 28043 ft 419 kts 289°
2026-05-08 11:28 45.15704 24.62719 28342 ft 421 kts 289°
2026-05-08 11:28 45.16782 24.58860 28631 ft 422 kts 289°
2026-05-08 11:28 45.17863 24.54983 28930 ft 424 kts 289°
2026-05-08 11:29 45.18947 24.51089 29210 ft 425 kts 289°
2026-05-08 11:29 45.20037 24.47179 29467 ft 427 kts 289°
2026-05-08 11:29 45.21133 24.43252 29731 ft 429 kts 289°
2026-05-08 11:29 45.22231 24.39308 29993 ft 431 kts 288°
2026-05-08 11:30 45.23328 24.35351 30223 ft 432 kts 288°
2026-05-08 11:30 45.24425 24.31377 30393 ft 434 kts 288°
2026-05-08 11:30 45.25530 24.27371 30510 ft 437 kts 288°
2026-05-08 11:30 45.26625 24.23401 30634 ft 439 kts 288°
2026-05-08 11:31 45.27739 24.19355 30762 ft 441 kts 288°
2026-05-08 11:31 45.28858 24.15289 30891 ft 443 kts 288°
2026-05-08 11:31 45.29982 24.11207 31009 ft 444 kts 288°
2026-05-08 11:31 45.31105 24.07110 31146 ft 445 kts 288°
2026-05-08 11:32 45.32222 24.03008 31301 ft 445 kts 288°
2026-05-08 11:32 45.33338 23.98906 31466 ft 445 kts 288°
2026-05-08 11:32 45.34455 23.94805 31618 ft 445 kts 288°
2026-05-08 11:32 45.35572 23.90704 31801 ft 444 kts 288°
2026-05-08 11:33 45.36683 23.86612 32006 ft 444 kts 288°
2026-05-08 11:33 45.37793 23.82515 32234 ft 443 kts 288°
2026-05-08 11:33 45.38898 23.78428 32429 ft 443 kts 288°
2026-05-08 11:33 45.40003 23.74345 32646 ft 442 kts 288°
2026-05-08 11:34 45.41109 23.70266 32858 ft 441 kts 288°
2026-05-08 11:34 45.42207 23.66199 33071 ft 440 kts 287°
2026-05-08 11:34 45.43302 23.62126 33255 ft 440 kts 287°
2026-05-08 11:34 45.44392 23.58060 33449 ft 439 kts 287°
2026-05-08 11:35 45.45477 23.53996 33642 ft 439 kts 287°
2026-05-08 11:35 45.46559 23.49931 33834 ft 438 kts 287°
2026-05-08 11:35 45.47637 23.45879 34020 ft 438 kts 287°
2026-05-08 11:35 45.48702 23.41879 34195 ft 437 kts 287°
2026-05-08 11:36 45.49782 23.37828 34364 ft 437 kts 287°
2026-05-08 11:36 45.50859 23.33787 34549 ft 436 kts 287°
2026-05-08 11:36 45.51929 23.29753 34729 ft 435 kts 287°
2026-05-08 11:36 45.52994 23.25720 34907 ft 434 kts 287°
2026-05-08 11:37 45.54058 23.21689 35069 ft 434 kts 287°
2026-05-08 11:37 45.55119 23.17666 35258 ft 433 kts 287°
2026-05-08 11:37 45.56177 23.13649 35453 ft 432 kts 287°
2026-05-08 11:37 45.57231 23.09642 35624 ft 431 kts 287°
2026-05-08 11:38 45.58284 23.05641 35772 ft 430 kts 287°
2026-05-08 11:38 45.59334 23.01644 35942 ft 429 kts 287°
2026-05-08 11:38 45.60380 22.97651 36038 ft 430 kts 287°
2026-05-08 11:39 45.62465 22.89659 36051 ft 429 kts 287°
2026-05-08 11:39 45.64541 22.81669 36052 ft 429 kts 287°
2026-05-08 11:40 45.66606 22.73670 36048 ft 429 kts 287°
2026-05-08 11:40 45.68671 22.65678 36057 ft 428 kts 287°
2026-05-08 11:41 45.70734 22.57680 36047 ft 429 kts 287°
2026-05-08 11:41 45.72778 22.49723 36070 ft 429 kts 287°
2026-05-08 11:42 45.74828 22.41697 36070 ft 429 kts 286°
2026-05-08 11:42 45.76867 22.33669 36069 ft 429 kts 287°
2026-05-08 11:43 45.78905 22.25634 36072 ft 429 kts 286°
2026-05-08 11:43 45.80936 22.17601 36070 ft 429 kts 286°
2026-05-08 11:44 45.82961 22.09560 36069 ft 429 kts 287°
2026-05-08 11:44 45.85211 22.01621 36083 ft 430 kts 290°
2026-05-08 11:45 45.87700 21.93793 36081 ft 431 kts 291°
2026-05-08 11:45 45.90163 21.86020 36077 ft 430 kts 290°
2026-05-08 11:46 45.92510 21.78130 36084 ft 428 kts 285°
2026-05-08 11:46 45.94329 21.70006 36080 ft 427 kts 284°
2026-05-08 11:47 45.96167 21.61897 36086 ft 427 kts 285°
2026-05-08 11:47 45.98009 21.53789 36082 ft 426 kts 284°
2026-05-08 11:48 45.99836 21.45673 36099 ft 426 kts 284°
2026-05-08 11:48 46.01656 21.37561 36091 ft 426 kts 284°
2026-05-08 11:49 46.03457 21.29508 36087 ft 425 kts 284°
2026-05-08 11:49 46.05254 21.21399 36082 ft 425 kts 284°
2026-05-08 11:50 46.07054 21.13292 36078 ft 425 kts 284°
2026-05-08 11:50 46.08848 21.05184 36087 ft 425 kts 284°
2026-05-08 11:51 46.10636 20.97079 36083 ft 425 kts 284°
2026-05-08 11:51 46.12418 20.88964 36085 ft 424 kts 284°
2026-05-08 11:52 46.14183 20.80851 36074 ft 424 kts 284°
2026-05-08 11:52 46.15941 20.72727 36102 ft 424 kts 284°
2026-05-08 11:53 46.17255 20.64480 36087 ft 421 kts 279°
2026-05-08 11:53 46.18416 20.56194 36089 ft 421 kts 278°
2026-05-08 11:54 46.19562 20.47959 36088 ft 421 kts 278°
2026-05-08 11:54 46.20711 20.39674 36084 ft 421 kts 278°
2026-05-08 11:55 46.21858 20.31382 36098 ft 421 kts 278°
2026-05-08 11:55 46.23000 20.23088 36098 ft 421 kts 278°
2026-05-08 11:56 46.24129 20.14800 36094 ft 421 kts 278°
2026-05-08 11:56 46.25250 20.06510 36093 ft 420 kts 278°
2026-05-08 11:57 46.26369 19.98221 36097 ft 420 kts 278°
2026-05-08 11:57 46.27483 19.89926 36099 ft 420 kts 278°
2026-05-08 11:58 46.28594 19.81637 36101 ft 420 kts 278°
2026-05-08 11:58 46.29693 19.73336 36098 ft 420 kts 278°
2026-05-08 11:59 46.31330 19.60882 36101 ft 420 kts 278°
2026-05-08 11:59 46.32419 19.52577 36112 ft 420 kts 278°
2026-05-08 12:00 46.33493 19.44273 36094 ft 420 kts 278°
2026-05-08 12:00 46.34561 19.35967 36093 ft 420 kts 278°
2026-05-08 12:01 46.35627 19.27658 36097 ft 420 kts 278°
2026-05-08 12:01 46.36685 19.19403 36095 ft 420 kts 278°
2026-05-08 12:02 46.37735 19.11084 36106 ft 420 kts 277°
2026-05-08 12:02 46.38773 19.02766 36100 ft 420 kts 277°
2026-05-08 12:03 46.39817 18.94449 36098 ft 420 kts 277°
2026-05-08 12:03 46.40855 18.86129 36097 ft 420 kts 277°
2026-05-08 12:04 46.41887 18.77807 36110 ft 420 kts 277°
2026-05-08 12:04 46.42908 18.69488 36102 ft 419 kts 277°
2026-05-08 12:05 46.43922 18.61166 36101 ft 419 kts 277°
2026-05-08 12:05 46.44925 18.52849 36100 ft 419 kts 277°
2026-05-08 12:06 46.45925 18.44530 36097 ft 419 kts 277°
2026-05-08 12:06 46.46930 18.36209 36104 ft 419 kts 277°
2026-05-08 12:07 46.47752 18.29295 36098 ft 419 kts 277°
2026-05-08 12:07 46.48735 18.20969 36096 ft 419 kts 277°
2026-05-08 12:08 46.49714 18.12643 36096 ft 419 kts 277°
2026-05-08 12:08 46.50691 18.04313 36094 ft 419 kts 277°
2026-05-08 12:09 46.51656 17.95983 36106 ft 418 kts 277°
2026-05-08 12:09 46.52617 17.87652 36101 ft 418 kts 276°
2026-05-08 12:10 46.53570 17.79320 36099 ft 418 kts 276°
2026-05-08 12:10 46.54516 17.70994 36097 ft 418 kts 276°
2026-05-08 12:11 46.55461 17.62660 36096 ft 418 kts 276°
2026-05-08 12:11 46.56400 17.54330 36105 ft 418 kts 276°
2026-05-08 12:12 46.57331 17.45998 36104 ft 418 kts 276°
2026-05-08 12:12 46.58250 17.37665 36104 ft 417 kts 276°
2026-05-08 12:13 46.59160 17.29330 36103 ft 418 kts 276°
2026-05-08 12:13 46.60069 17.20994 36121 ft 417 kts 276°
2026-05-08 12:14 46.60971 17.12699 36113 ft 417 kts 276°
2026-05-08 12:14 46.61871 17.04365 36107 ft 417 kts 276°
2026-05-08 12:15 46.62760 16.96022 36105 ft 417 kts 276°
2026-05-08 12:15 46.63643 16.87685 36104 ft 417 kts 276°
2026-05-08 12:16 46.64524 16.79345 36106 ft 417 kts 275°
2026-05-08 12:16 46.65400 16.70989 36101 ft 418 kts 275°
2026-05-08 12:17 46.66262 16.62624 36100 ft 418 kts 275°
2026-05-08 12:17 46.67125 16.54254 36101 ft 418 kts 275°
2026-05-08 12:18 46.67982 16.45880 36096 ft 418 kts 275°
2026-05-08 12:18 46.68691 16.37485 36112 ft 417 kts 271°
2026-05-08 12:19 46.69070 16.29056 36107 ft 417 kts 270°
2026-05-08 12:19 46.69367 16.20624 36107 ft 417 kts 270°
2026-05-08 12:20 46.69700 16.12179 36107 ft 418 kts 270°
2026-05-08 12:20 46.70077 16.03734 36101 ft 418 kts 270°
2026-05-08 12:21 46.70462 15.95291 36103 ft 418 kts 270°
2026-05-08 12:21 46.70825 15.86845 36101 ft 418 kts 270°
2026-05-08 12:22 46.71169 15.78398 36104 ft 418 kts 270°
2026-05-08 12:22 46.71508 15.69947 36079 ft 418 kts 270°
2026-05-08 12:23 46.71855 15.61497 36084 ft 418 kts 270°
2026-05-08 12:23 46.72193 15.53036 36094 ft 418 kts 270°
2026-05-08 12:24 46.72520 15.44568 36093 ft 418 kts 270°
2026-05-08 12:24 46.72833 15.36098 36093 ft 419 kts 270°
2026-05-08 12:25 46.73145 15.27668 36094 ft 419 kts 270°
2026-05-08 12:25 46.73462 15.19192 36095 ft 419 kts 270°
2026-05-08 12:26 46.73770 15.10714 36087 ft 419 kts 269°
2026-05-08 12:26 46.74063 15.02226 36090 ft 419 kts 269°
2026-05-08 12:27 46.74355 14.93740 36083 ft 420 kts 269°
2026-05-08 12:27 46.74631 14.85239 36078 ft 420 kts 269°
2026-05-08 12:28 46.74904 14.76739 36091 ft 420 kts 269°
2026-05-08 12:28 46.75179 14.68221 36076 ft 421 kts 269°
2026-05-08 12:29 46.75447 14.59695 36078 ft 421 kts 269°
2026-05-08 12:29 46.75711 14.51155 36079 ft 422 kts 269°
2026-05-08 12:30 46.75966 14.42613 36080 ft 422 kts 269°
2026-05-08 12:30 46.76211 14.34073 36088 ft 422 kts 269°
2026-05-08 12:31 46.76450 14.25509 36075 ft 423 kts 269°
2026-05-08 12:31 46.76690 14.16942 36069 ft 424 kts 269°
2026-05-08 12:32 46.76919 14.08348 36065 ft 424 kts 269°
2026-05-08 12:32 46.77141 13.99744 36058 ft 425 kts 269°
2026-05-08 12:33 46.77358 13.91143 36075 ft 424 kts 269°
2026-05-08 12:33 46.77571 13.82546 36075 ft 424 kts 269°
2026-05-08 12:34 46.77770 13.73938 36067 ft 424 kts 268°
2026-05-08 12:34 46.77967 13.65338 36065 ft 424 kts 268°
2026-05-08 12:35 46.78159 13.56730 36040 ft 425 kts 269°
2026-05-08 12:35 46.78343 13.48116 36060 ft 425 kts 268°
2026-05-08 12:36 46.78526 13.39503 36064 ft 425 kts 268°
2026-05-08 12:36 46.78701 13.30893 36065 ft 425 kts 268°
2026-05-08 12:37 46.78867 13.22278 36065 ft 425 kts 268°
2026-05-08 12:37 46.79023 13.13666 36066 ft 424 kts 268°
2026-05-08 12:38 46.79176 13.05061 36064 ft 424 kts 268°
2026-05-08 12:38 46.79322 12.96456 36061 ft 424 kts 268°
2026-05-08 12:39 46.79462 12.87845 36061 ft 424 kts 268°
2026-05-08 12:39 46.79590 12.79241 36055 ft 424 kts 268°
2026-05-08 12:40 46.79709 12.70649 36079 ft 424 kts 268°
2026-05-08 12:40 46.79839 12.62027 36075 ft 425 kts 268°
2026-05-08 12:41 46.79955 12.53388 36083 ft 426 kts 268°
2026-05-08 12:41 46.80061 12.44741 36097 ft 426 kts 268°
2026-05-08 12:42 46.80157 12.36085 36115 ft 426 kts 268°
2026-05-08 12:42 46.80350 12.27435 36133 ft 429 kts 274°
2026-05-08 12:43 46.81362 12.18830 36125 ft 430 kts 276°
2026-05-08 12:43 46.82396 12.10215 36031 ft 431 kts 276°
2026-05-08 12:44 46.83414 12.01604 36029 ft 430 kts 276°
2026-05-08 12:44 46.84431 11.92993 36022 ft 430 kts 276°
2026-05-08 12:45 46.85437 11.84384 36023 ft 430 kts 275°
2026-05-08 12:45 46.86426 11.75829 36011 ft 430 kts 275°
2026-05-08 12:46 46.87420 11.67222 36005 ft 429 kts 275°
2026-05-08 12:46 46.88406 11.58601 36010 ft 430 kts 275°
2026-05-08 12:47 46.89380 11.49978 36035 ft 430 kts 275°
2026-05-08 12:47 46.90348 11.41361 36035 ft 430 kts 275°
2026-05-08 12:48 46.91316 11.32736 36053 ft 430 kts 275°
2026-05-08 12:48 46.92280 11.24139 36050 ft 429 kts 275°
2026-05-08 12:49 46.93235 11.15517 36057 ft 430 kts 275°
2026-05-08 12:49 46.94174 11.06895 36063 ft 429 kts 275°
2026-05-08 12:50 46.95113 10.98261 36045 ft 430 kts 275°
2026-05-08 12:50 46.96055 10.89619 36129 ft 430 kts 275°
2026-05-08 12:51 46.96521 10.85298 36344 ft 428 kts 275°
2026-05-08 12:51 46.97429 10.76833 37019 ft 417 kts 275°
2026-05-08 12:52 46.98167 10.69876 37065 ft 415 kts 275°
2026-05-08 12:52 46.99486 10.57336 37043 ft 415 kts 275°
2026-05-08 12:53 47.00358 10.48983 37048 ft 415 kts 275°
2026-05-08 12:53 47.01224 10.40624 37049 ft 415 kts 275°
2026-05-08 12:54 47.02080 10.32261 37057 ft 415 kts 275°
2026-05-08 12:54 47.02931 10.23881 37065 ft 416 kts 275°
2026-05-08 12:55 47.03780 10.15483 37067 ft 417 kts 275°
2026-05-08 12:55 47.04633 10.07085 37067 ft 417 kts 275°
2026-05-08 12:56 47.05481 9.98667 37065 ft 417 kts 275°
2026-05-08 12:56 47.06314 9.90244 37063 ft 417 kts 275°
2026-05-08 12:57 47.07141 9.81821 37072 ft 417 kts 275°
2026-05-08 12:57 47.07964 9.73390 37061 ft 417 kts 275°
2026-05-08 12:58 47.08781 9.64973 37059 ft 417 kts 275°
2026-05-08 12:58 47.09587 9.56552 37043 ft 416 kts 275°
2026-05-08 12:59 47.10388 9.48125 37058 ft 417 kts 275°
2026-05-08 12:59 47.11188 9.39686 37053 ft 418 kts 275°
2026-05-08 13:00 47.11983 9.31222 37051 ft 418 kts 275°
2026-05-08 13:00 47.12765 9.22765 37052 ft 418 kts 275°
2026-05-08 13:01 47.13546 9.14302 37054 ft 418 kts 275°
2026-05-08 13:01 47.14321 9.05838 37059 ft 418 kts 275°
2026-05-08 13:02 47.15084 8.97359 37053 ft 418 kts 275°
2026-05-08 13:02 47.16146 8.88954 37048 ft 422 kts 286°
2026-05-08 13:03 47.18212 8.80860 37047 ft 423 kts 288°
2026-05-08 13:03 47.20284 8.72755 37050 ft 423 kts 287°
2026-05-08 13:04 47.22341 8.64644 37067 ft 423 kts 288°
2026-05-08 13:04 47.24393 8.56523 37062 ft 423 kts 288°
2026-05-08 13:05 47.26149 8.48352 37060 ft 420 kts 277°
2026-05-08 13:05 47.26855 8.39832 37043 ft 419 kts 275°
2026-05-08 13:06 47.27544 8.31305 37041 ft 419 kts 275°
2026-05-08 13:06 47.28231 8.22776 37046 ft 419 kts 275°
2026-05-08 13:07 47.28911 8.14252 37041 ft 419 kts 275°
2026-05-08 13:07 47.29581 8.05714 37044 ft 420 kts 275°
2026-05-08 13:08 47.30246 7.97171 37045 ft 420 kts 275°
2026-05-08 13:08 47.30903 7.88631 37043 ft 420 kts 275°
2026-05-08 13:09 47.31556 7.80060 37025 ft 425 kts 275°
2026-05-08 13:09 47.32218 7.71323 37034 ft 433 kts 275°
2026-05-08 13:10 47.32882 7.62449 37027 ft 436 kts 275°
2026-05-08 13:10 47.33539 7.53546 37037 ft 438 kts 275°
2026-05-08 13:11 47.34195 7.44567 37029 ft 442 kts 275°
2026-05-08 13:11 47.34844 7.35607 37035 ft 443 kts 275°
2026-05-08 13:12 47.35491 7.26570 37043 ft 444 kts 275°
2026-05-08 13:12 47.36129 7.17517 37051 ft 444 kts 275°
2026-05-08 13:13 47.36774 7.08386 37054 ft 444 kts 275°
2026-05-08 13:13 47.37683 6.99375 37055 ft 444 kts 279°
2026-05-08 13:14 47.38841 6.90425 37065 ft 444 kts 279°
2026-05-08 13:14 47.39991 6.81470 37057 ft 444 kts 279°
2026-05-08 13:15 47.41060 6.72486 37052 ft 445 kts 278°
2026-05-08 13:15 47.42092 6.63479 37055 ft 445 kts 278°
2026-05-08 13:16 47.43127 6.54469 37060 ft 445 kts 278°
2026-05-08 13:16 47.44168 6.45467 37055 ft 444 kts 278°
2026-05-08 13:17 47.45198 6.36467 37052 ft 444 kts 278°
2026-05-08 13:17 47.46204 6.27537 37047 ft 443 kts 278°
2026-05-08 13:18 47.47223 6.18550 37052 ft 443 kts 278°
2026-05-08 13:18 47.48234 6.09571 37048 ft 443 kts 278°
2026-05-08 13:19 47.49232 6.00594 37040 ft 443 kts 278°
2026-05-08 13:19 47.50219 5.91601 37048 ft 443 kts 278°
2026-05-08 13:20 47.51196 5.82613 37049 ft 443 kts 278°
2026-05-08 13:20 47.52171 5.73624 37054 ft 442 kts 278°
2026-05-08 13:21 47.53139 5.64643 37046 ft 442 kts 278°
2026-05-08 13:21 47.54105 5.55662 37047 ft 442 kts 278°
2026-05-08 13:22 47.55060 5.46686 37047 ft 441 kts 278°
2026-05-08 13:22 47.56001 5.37708 37061 ft 441 kts 278°
2026-05-08 13:23 47.56941 5.28735 37056 ft 441 kts 278°
2026-05-08 13:23 47.57872 5.19778 37058 ft 440 kts 278°
2026-05-08 13:24 47.59585 5.11106 37045 ft 441 kts 297°
2026-05-08 13:24 47.61283 5.07319 37050 ft 444 kts 308°
2026-05-08 13:24 47.63484 5.04092 37047 ft 447 kts 317°
2026-05-08 13:25 47.68238 4.98161 37058 ft 446 kts 317°
2026-05-08 13:25 47.72981 4.92202 37065 ft 447 kts 317°
2026-05-08 13:26 47.77717 4.86210 37052 ft 447 kts 316°
2026-05-08 13:26 47.82447 4.80203 37051 ft 447 kts 317°
2026-05-08 13:27 47.87177 4.74179 36808 ft 447 kts 316°
2026-05-08 13:27 47.89495 4.71225 36250 ft 441 kts 317°
2026-05-08 13:27 47.91849 4.68228 35616 ft 437 kts 317°
2026-05-08 13:28 47.94125 4.65325 34880 ft 436 kts 317°
2026-05-08 13:28 47.96413 4.62401 34313 ft 430 kts 317°
2026-05-08 13:28 47.98664 4.59516 33752 ft 424 kts 316°
2026-05-08 13:28 48.00886 4.56668 32984 ft 421 kts 316°
2026-05-08 13:29 48.03114 4.53804 31997 ft 424 kts 316°
2026-05-08 13:29 48.05342 4.50930 31252 ft 421 kts 316°
2026-05-08 13:29 48.07539 4.48092 30621 ft 416 kts 316°
2026-05-08 13:29 48.09721 4.45276 29996 ft 412 kts 316°
2026-05-08 13:30 48.11877 4.42493 29273 ft 408 kts 316°
2026-05-08 13:30 48.14015 4.39731 28554 ft 405 kts 316°
2026-05-08 13:30 48.16144 4.36982 27761 ft 404 kts 316°
2026-05-08 13:30 48.18272 4.34233 26990 ft 404 kts 316°
2026-05-08 13:31 48.20392 4.31487 26267 ft 402 kts 316°
2026-05-08 13:31 48.22486 4.28773 25919 ft 391 kts 316°
2026-05-08 13:31 48.24532 4.26119 25320 ft 387 kts 316°
2026-05-08 13:31 48.26493 4.23389 24743 ft 380 kts 309°
2026-05-08 13:32 48.28171 4.20364 24169 ft 375 kts 306°
2026-05-08 13:32 48.29819 4.17353 23608 ft 371 kts 306°
2026-05-08 13:32 48.31455 4.14370 22940 ft 368 kts 306°
2026-05-08 13:32 48.33079 4.11407 22288 ft 366 kts 306°
2026-05-08 13:33 48.34693 4.08462 21588 ft 365 kts 306°
2026-05-08 13:33 48.36321 4.05493 20851 ft 366 kts 307°
2026-05-08 13:33 48.37929 4.02566 20390 ft 361 kts 307°
2026-05-08 13:33 48.39521 3.99659 19663 ft 362 kts 307°
2026-05-08 13:34 48.41139 3.96694 18785 ft 369 kts 307°
2026-05-08 13:34 48.42753 3.93731 18386 ft 361 kts 307°
2026-05-08 13:34 48.44325 3.90843 18031 ft 352 kts 307°
2026-05-08 13:34 48.45856 3.88033 17715 ft 342 kts 307°
2026-05-08 13:35 48.47345 3.85297 17403 ft 333 kts 307°
2026-05-08 13:35 48.48794 3.82631 17102 ft 325 kts 307°
2026-05-08 13:35 48.50204 3.80028 16798 ft 316 kts 306°
2026-05-08 13:35 48.51575 3.77491 16522 ft 309 kts 306°
2026-05-08 13:36 48.52915 3.75016 16242 ft 301 kts 306°
2026-05-08 13:36 48.54182 3.72551 15977 ft 292 kts 300°
2026-05-08 13:36 48.55262 3.70025 15849 ft 280 kts 300°
2026-05-08 13:36 48.56304 3.67602 15702 ft 270 kts 300°
2026-05-08 13:37 48.57345 3.65181 15578 ft 289 kts 300°
2026-05-08 13:37 48.58470 3.62552 15413 ft 303 kts 300°
2026-05-08 13:37 48.59223 3.60798 15299 ft 297 kts 300°
2026-05-08 13:37 48.60368 3.58129 15154 ft 309 kts 300°
2026-05-08 13:38 48.61445 3.55304 14980 ft 311 kts 292°
2026-05-08 13:38 48.62318 3.52314 14724 ft 311 kts 291°
2026-05-08 13:38 48.63193 3.49295 14482 ft 320 kts 291°
2026-05-08 13:38 48.64096 3.46178 14237 ft 325 kts 291°
2026-05-08 13:39 48.65004 3.43048 13977 ft 326 kts 291°
2026-05-08 13:39 48.65916 3.39912 13714 ft 325 kts 291°
2026-05-08 13:39 48.66823 3.36788 13455 ft 324 kts 291°
2026-05-08 13:39 48.67726 3.33672 13199 ft 323 kts 291°
2026-05-08 13:40 48.68624 3.30562 12958 ft 322 kts 291°
2026-05-08 13:40 48.69519 3.27461 12713 ft 321 kts 291°
2026-05-08 13:40 48.70412 3.24375 12465 ft 320 kts 291°
2026-05-08 13:40 48.71304 3.21290 12219 ft 319 kts 291°
2026-05-08 13:41 48.72190 3.18217 11977 ft 318 kts 291°
2026-05-08 13:41 48.73071 3.15153 11729 ft 317 kts 291°
2026-05-08 13:41 48.73947 3.12096 11479 ft 316 kts 291°
2026-05-08 13:41 48.74822 3.09046 11252 ft 315 kts 291°
2026-05-08 13:42 48.75696 3.06004 11002 ft 314 kts 292°
2026-05-08 13:42 48.76565 3.02972 10757 ft 312 kts 292°
2026-05-08 13:42 48.77426 2.99960 10518 ft 311 kts 291°
2026-05-08 13:42 48.78267 2.97005 10310 ft 299 kts 292°
2026-05-08 13:43 48.79075 2.94166 10203 ft 289 kts 292°
2026-05-08 13:43 48.79868 2.91377 10076 ft 287 kts 292°
2026-05-08 13:43 48.80655 2.88602 9873 ft 286 kts 292°
2026-05-08 13:43 48.81436 2.85841 9622 ft 285 kts 292°
2026-05-08 13:44 48.82217 2.83084 9373 ft 284 kts 292°
2026-05-08 13:44 48.82996 2.80339 9158 ft 283 kts 292°
2026-05-08 13:44 48.83775 2.77597 8922 ft 282 kts 292°
2026-05-08 13:44 48.84548 2.74862 8699 ft 282 kts 292°
2026-05-08 13:45 48.85317 2.72135 8472 ft 281 kts 292°
2026-05-08 13:45 48.86084 2.69416 8244 ft 279 kts 292°
2026-05-08 13:45 48.86846 2.66707 7994 ft 278 kts 292°
2026-05-08 13:45 48.87605 2.64008 7748 ft 278 kts 292°
2026-05-08 13:46 48.88352 2.61354 7526 ft 268 kts 292°
2026-05-08 13:46 48.89071 2.58799 7313 ft 259 kts 292°
2026-05-08 13:46 48.89763 2.56321 7103 ft 250 kts 292°
2026-05-08 13:46 48.90432 2.53924 6899 ft 243 kts 293°
2026-05-08 13:47 48.91087 2.51587 6704 ft 237 kts 293°
2026-05-08 13:47 48.91722 2.49316 6503 ft 231 kts 293°
2026-05-08 13:47 48.92346 2.47080 6208 ft 229 kts 293°
2026-05-08 13:47 48.92966 2.44858 5892 ft 228 kts 293°
2026-05-08 13:48 48.93585 2.42635 5561 ft 228 kts 293°
2026-05-08 13:48 48.94202 2.40422 5292 ft 225 kts 294°
2026-05-08 13:48 48.94803 2.38267 5101 ft 219 kts 294°
2026-05-08 13:48 48.95395 2.36145 4844 ft 218 kts 294°
2026-05-08 13:49 48.95982 2.34033 4654 ft 215 kts 293°
2026-05-08 13:49 48.96562 2.31941 4447 ft 216 kts 294°
2026-05-08 13:49 48.97142 2.29844 4190 ft 214 kts 294°
2026-05-08 13:49 48.97711 2.27784 4019 ft 207 kts 294°
2026-05-08 13:50 48.98264 2.25776 4007 ft 205 kts 294°
2026-05-08 13:50 48.98816 2.23769 4012 ft 206 kts 294°
2026-05-08 13:50 48.99370 2.21757 4014 ft 206 kts 293°
2026-05-08 13:50 48.99769 2.19686 4016 ft 200 kts 284°
2026-05-08 13:51 49.00072 2.17627 4015 ft 200 kts 283°
2026-05-08 13:51 49.00363 2.15550 4007 ft 200 kts 285°
2026-05-08 13:51 49.01040 2.13783 4003 ft 194 kts 324°
2026-05-08 13:51 49.02258 2.13070 4012 ft 188 kts
2026-05-08 13:52 49.03472 2.13601 4016 ft 178 kts 31°
2026-05-08 13:52 49.04278 2.14918 4003 ft 171 kts 71°
2026-05-08 13:52 49.04310 2.16713 4023 ft 173 kts 99°
2026-05-08 13:52 49.04070 2.18509 4017 ft 173 kts 101°
2026-05-08 13:53 49.03799 2.20294 4005 ft 172 kts 102°
2026-05-08 13:53 49.03523 2.22061 3745 ft 172 kts 102°
2026-05-08 13:53 49.03245 2.23843 3436 ft 173 kts 102°
2026-05-08 13:53 49.02965 2.25625 3161 ft 173 kts 102°
2026-05-08 13:54 49.02690 2.27401 3029 ft 173 kts 102°
2026-05-08 13:54 49.02414 2.29163 2825 ft 171 kts 102°
2026-05-08 13:54 49.02136 2.30921 2595 ft 170 kts 102°
2026-05-08 13:54 49.01853 2.32663 2415 ft 169 kts 102°
2026-05-08 13:55 49.01574 2.34409 2271 ft 170 kts 103°
2026-05-08 13:55 49.01395 2.36180 2115 ft 169 kts 80°
2026-05-08 13:55 49.01779 2.39621 2031 ft 152 kts 84°
2026-05-08 13:56 49.01857 2.41157 1890 ft 141 kts 85°
2026-05-08 13:56 49.01934 2.42606 1714 ft 133 kts 84°
2026-05-08 13:56 49.02010 2.44006 1522 ft 133 kts 85°
2026-05-08 13:56 49.02086 2.45397 1348 ft 131 kts 85°
2026-05-08 13:57 49.02161 2.46780 1172 ft 132 kts 85°
2026-05-08 13:57 49.02236 2.48147 991 ft 128 kts 87°
2026-05-08 13:57 49.02309 2.49495 828 ft 129 kts 85°
2026-05-08 13:57 49.02382 2.50838 639 ft 127 kts 86°
2026-05-08 13:58 49.02463 2.52182 448 ft 128 kts 83°
2026-05-08 13:58 49.02532 2.53479 356 ft 114 kts 87°
2026-05-08 13:58 49.02566 2.54421 359 ft 62 kts 95°
2026-05-08 13:58 49.02468 2.55008 355 ft 55 kts 105°
2026-05-08 13:59 49.02460 2.55508 355 ft 31 kts 88°
2026-05-08 13:59 49.02408 2.55606 360 ft 0 kts 162°
2026-05-08 13:59 49.02407 2.55607 362 ft 1 kts 162°
2026-05-08 14:00 49.02395 2.55611 358 ft 2 kts 167°
2026-05-08 14:00 49.02374 2.55618 355 ft 4 kts 172°
2026-05-08 14:00 49.02337 2.55625 363 ft 7 kts 173°
2026-05-08 14:00 49.02267 2.55637 358 ft 13 kts 173°
2026-05-08 14:01 49.02178 2.55652 354 ft 13 kts 173°
2026-05-08 14:01 49.02106 2.55693 359 ft 10 kts 110°
2026-05-08 14:01 49.02084 2.55853 354 ft 21 kts 89°
2026-05-08 14:01 49.02097 2.56114 355 ft 26 kts 85°
2026-05-08 14:02 49.02043 2.56355 357 ft 24 kts 119°
2026-05-08 14:02 49.02035 2.56596 355 ft 23 kts 90°
2026-05-08 14:02 49.02038 2.56834 355 ft 22 kts 85°
2026-05-08 14:02 49.02055 2.57065 355 ft 22 kts 84°
2026-05-08 14:03 49.02068 2.57293 356 ft 22 kts 86°
2026-05-08 14:03 49.02078 2.57520 361 ft 21 kts 86°
2026-05-08 14:03 49.02084 2.57744 355 ft 21 kts 94°
2026-05-08 14:03 49.02038 2.57948 358 ft 20 kts 124°
2026-05-08 14:04 49.01931 2.58082 361 ft 20 kts 158°
2026-05-08 14:04 49.01787 2.58127 355 ft 22 kts 174°
2026-05-08 14:04 49.01635 2.58146 355 ft 22 kts 178°
2026-05-08 14:04 49.01486 2.58158 355 ft 21 kts 174°
2026-05-08 14:05 49.01339 2.58184 361 ft 21 kts 173°
2026-05-08 14:05 49.01193 2.58204 355 ft 21 kts 176°
2026-05-08 14:05 49.01050 2.58220 355 ft 21 kts 175°
2026-05-08 14:05 49.00921 2.58163 362 ft 20 kts 232°
2026-05-08 14:06 49.00901 2.57975 355 ft 17 kts 260°
2026-05-08 14:06 49.00892 2.57793 360 ft 19 kts 269°
2026-05-08 14:06 49.00879 2.57578 358 ft 21 kts 268°
2026-05-08 14:06 49.00871 2.57362 357 ft 20 kts 264°
2026-05-08 14:07 49.00805 2.57213 355 ft 17 kts 195°
2026-05-08 14:07 49.00716 2.57270 364 ft 10 kts 136°
2026-05-08 14:07 49.00687 2.57312 360 ft 1 kts 136°
2026-05-08 14:07 49.00682 2.57319 360 ft 1 kts 136°
2026-05-08 14:08 49.00681 2.57322 359 ft 0 kts 136°
2026-05-08 14:18 49.00681 2.57321 355 ft 0 kts 136°